{"data":{"norad_id":69178,"intl_designator":"2026-112B","name":"ELECTRON KICK STAGE R/B","alt_names":[],"object_type":"ROCKET_BODY","status":"UNKNOWN","operator":null,"country":"US","launch_date":"2026-05-22","launch_site_code":"RLLB","launch_vehicle":null,"mission":null,"orbit_class":"UNKNOWN","rcs_meters":null,"size_class":null,"mass_kg":null,"dimensions":null,"purposes":[],"wikipedia_slug":null,"has_3d_model":false,"image_url":null,"decayed_at":null,"tle_current":{"epoch":"2026-05-22T19:42:22.048992Z","epoch_age_seconds":259421,"freshness":"STALE","line1":"1 69178U 26112B   26142.82108853  .00000177  00000+0  30623-4 0  9995","line2":"2 69178  44.9111 325.6435 0027869 269.2056  90.5623 15.02347412    63","mean_motion":15.02347412,"eccentricity":0.0027869,"inclination_deg":44.9111,"raan_deg":325.6435,"arg_perigee_deg":269.2056,"mean_anomaly_deg":90.5623,"bstar":3.0623e-5,"rev_number":6,"period_min":95.850000372617,"perigee_km":540.32512197796,"apogee_km":578.99501527908,"semimajor_km":6937.7970686285,"source":"CELESTRAK","updated_at":"2026-05-25T13:38:09.297881Z"}}}